www.pogodaiklimat.ru

Погода и климат >> Архив погоды >> Индонезия >> Тернат


ПОГОДА в Тернате

  • Прогноз погоды в Тернате
  • Монитор погоды в Тернате

АРХИВ ПОГОДЫ в Тернате

Время (UTC), дата Ветер
(напр.,м/с)
 
Видим.   Явления Облачность Т
(С)
Тd
(С)
f
(%)
Тe
(С)
Тes
(С)
Комфортность P
(гПа)
Po
(гПа)
Тmin
(С)
Tmax
(С)
R
(мм)
R24
(мм)
S
(см)
18 16.07 ЮЗ 3 10 км 5/3 540 м
[Cu med, cong Ac trans Ci fib]
+26.0 +23.0 84 +35 +35 очень
душно
1009.8 1005.9
21 16.07 штиль 0 10 км 8/3 540 м
[Cu med, cong Ac trans Ci fib]
+25.8 +23.4 87 +35 +35 очень
душно
1009.8 1005.9
00 17.07 Ю 2 9000 м 9/5 540 м
[Cu med, cong Ac trans Ci sp]
+27.6 +23.8 80 +38 +40 очень
душно
1011.2 1007.3 +26.2
03 17.07 Ю 3 9000 м {дождь} 9/5 540 м
[Cu med, cong Ac trans Ci sp]
+29.4 +23.6 71 +40 +45 очень
душно
1010.2 1006.3 0.0
06 17.07 ЮЗ 1 9000 м в посл. час дождь 9/5 540 м
[Cu med, cong Ac trans Ci sp]
+28.8 +24.7 79 +41 +46 опасность
перегрева
1008.5 1004.6 2
09 17.07 Ю 2 9000 м 9/4 540 м
[Cu med, cong Ac As Ci sp]
+27.8 +23.1 76 +37 +38 очень
душно
1008.4 1004.5
12 17.07 Ю 1 10 км 8/4 540 м
[Cu med, cong Ac trans Ci sp]
+27.0 +22.5 76 +35 +35 очень
душно
1010.4 1006.5 +29.8
15 17.07 штиль 0 10 км 9/3 600 м
[Cu med, cong Ac trans Ci sp]
+25.6 +23.7 89 +35 +35 очень
душно
1011.2 1007.3
18 17.07 ЮЗ 1 9000 м слаб. дождь 9/6 570 м
[Cu med, cong Ac trans Ci sp]
+25.4 +23.7 90 +35 +35 очень
душно
1010.2 1006.3 1
21 17.07 штиль 0 9000 м в посл. час дождь 9/5 570 м
[Cu med, cong Ac trans Ci sp]
+24.2 +23.4 95 +32 +32 очень
душно
1011.0 1007.1 3
00 18.07 ЮВ 2 10 км {дождь} 9/4 570 м
[Cu med, cong Ac As Ci sp]
+25.8 +24.0 90 +36 +38 очень
душно
1011.7 1007.8 +24.4 0.0
06 18.07 ЮВ 4 10 км в посл. час дождь 8/4 540 м
[Cu med, cong Ac trans Ci sp]
+29.0 +24.4 76 +41 +44 опасность
перегрева
1008.8 1004.9 0.3
09 18.07 ЮВ 2 9000 м 8/6 570 м
[Cu med, cong Ac trans Ci sp]
+28.8 +24.5 78 +41 +41 опасность
перегрева
1009.0 1005.1
12 18.07 штиль 0 10 км 5/3 570 м
[Cu med, cong Ac trans Ci sp]
+25.8 +23.6 88 +35 +35 очень
душно
1010.8 1006.9 +29.8
15 18.07 штиль 0 10 км 4/3 570 м
[Cu med, cong Ac trans Ci fib]
+24.6 +22.7 89 +32 +32 очень
душно
1011.5 1007.6
18 18.07 штиль 0 10 км 4/3 570 м
[Cu med, cong Ac trans Ci fib]
+23.8 +21.9 89 +31 +31 очень
душно
1010.5 1006.6
21 18.07 ЮЗ 1 10 км 4/3 570 м
[Cu med, cong Ac trans Ci fib]
+23.4 +22.4 94 +32 +32 очень
душно
1010.4 1006.5
00 19.07 В 2 10 км {дождь} 3/1 600 м
[Cu med, cong Ac trans Ci fib]
+27.4 +24.7 85 +39 +45 очень
душно
1011.4 1007.5 +23.2 0.3
03 19.07 В 3 10 км 9/3 600 м
[Cu med, cong Ac trans Ci sp]
+28.8 +24.5 78 +41 +48 опасность
перегрева
1010.6 1006.7
06 19.07 СВ 3 10 км 9/3 570 м
[Cu med, cong Ac trans Ci sp]
+30.0 +24.6 73 +43 +47 опасность
перегрева
1008.7 1004.8
09 19.07 С 2 10 км 9/3 570 м
[Cu med, cong Ac trans Ci sp]
+30.0 +25.4 76 +44 +44 опасность
перегрева
1008.8 1004.9
12 19.07 З 1 9000 м 9/5 540 м
[Cu med, cong Ac trans Ci sp]
+28.2 +25.6 86 +42 +42 опасность
перегрева
1010.4 1006.5 +31.4
15 19.07 штиль 0 9000 м 6/4 540 м
[Cu med, cong Ac trans Ci sp]
+26.2 +23.8 87 +36 +36 очень
душно
1011.1 1007.2
18 19.07 штиль 0 9000 м 8/5 540 м
[Cu med, cong Ac trans Ci sp]
+26.0 +23.6 87 +35 +35 очень
душно
1010.0 1006.1
21 19.07 штиль 0 9000 м 8/4 540 м
[Cu med, cong Ac trans Ci sp]
+25.8 +23.1 85 +34 +34 очень
душно
1010.3 1006.4
00 20.07 ЮЗ 3 10 км 9/4 540 м
[Cu med, cong Ac trans Ci sp]
+28.8 +23.5 73 +39 +41 очень
душно
1012.2 1008.3 +25.6
03 20.07 Ю 2 10 км 9/5 540 м
[Cu med, cong Ac trans Ci sp]
+29.6 +23.5 70 +40 +46 очень
душно
1011.2 1007.3
06 20.07 ЮЗ 3 10 км 9/5 540 м
[Cu med, cong Ac trans Ci sp]
+30.2 +24.4 71 +42 +45 опасность
перегрева
1009.4 1005.5
09 20.07 Ю 2 9000 м 8/5 540 м
[Cu med, cong Ac trans Ci sp]
+29.0 +23.4 72 +39 +39 очень
душно
1009.2 1005.3
12 20.07 штиль 0 9000 м 6/5 540 м
[Cu med, cong Ac trans Ci sp]
+27.2 +23.7 81 +37 +37 очень
душно
1010.6 1006.7 +32.6
15 20.07 штиль 0 9000 м 8/4 540 м
[Cu med, cong Ac trans Ci sp]
+26.8 +23.5 82 +36 +36 очень
душно
1011.5 1007.6
18 20.07 Ю 1 10 км 9/4 570 м
[Cu med, cong Ac As Ci sp]
+25.2 +22.8 87 +33 +33 очень
душно
1010.5 1006.6
21 20.07 ЮВ 1 10 км 9/4 570 м
[Cu med, cong Ac trans Ci sp]
+25.2 +22.8 87 +33 +33 очень
душно
1010.6 1006.7
00 21.07 ЮВ 3 10 км 5/3 570 м
[Cu med, cong Ac trans Ci sp]
+28.0 +23.3 76 +38 +42 очень
душно
1011.4 1007.5 +25.4
03 21.07 В 2 10 км 5/3 540 м
[Cu med, cong Ac trans Ci sp]
+30.8 +22.9 63 +41 +53 опасность
перегрева
1010.1 1006.2
06 21.07 СВ 3 10 км 5/3 540 м
[Cu med, cong Ac trans Ci sp]
+30.2 +24.4 71 +42 +49 опасность
перегрева
1008.5 1004.6
09 21.07 ЮВ 2 10 км 4/3 570 м
[Cu med, cong Ac trans Ci fib]
+29.2 +24.3 75 +41 +41 опасность
перегрева
1008.9 1005.1
12 21.07 штиль 0 10 км 5/3 570 м
[Cu med, cong Ac trans Ci fib]
+27.4 +24.5 84 +39 +39 очень
душно
1010.5 1006.6 +31.0
15 21.07 ЮЗ 2 10 км 6/3 570 м
[Cu med, cong Ac trans Ci fib]
+26.6 +24.1 86 +37 +37 очень
душно
1010.8 1006.8
18 21.07 штиль 0 10 км 8/3 570 м
[Cu med, cong Ac trans Ci fib]
+25.2 +23.0 88 +34 +34 очень
душно
1009.7 1005.8
21 21.07 штиль 0 9000 м 5/4 540 м
[Cu med, cong Ac trans Ci fib]
+24.2 +22.5 90 +32 +32 очень
душно
1009.8 1005.9
00 22.07 Ю 3 10 км 4/3 570 м
[Cu med, cong Ac trans Ci fib]
+28.0 +23.3 76 +38 +42 очень
душно
1010.5 1006.6 +23.8
03 22.07 З 1 10 км 6/4 570 м
[Cu med, cong Ac trans Ci sp]
+30.0 +24.2 71 +42 +53 опасность
перегрева
1010.0 1006.1
06 22.07 С 3 10 км 5/3 570 м
[Cu med, cong Ac trans Ci fib]
+30.0 +23.9 70 +41 +48 опасность
перегрева
1007.9 1004.0
09 22.07 ЮЗ 1 10 км 9/4 570 м
[Cu med, cong Ac trans Ci sp]
+29.0 +24.7 78 +41 +42 опасность
перегрева
1008.4 1004.5
12 22.07 С 3 10 км 8/3 570 м
[Cu med, cong Ac trans Ci sp]
+27.6 +23.5 78 +37 +37 очень
душно
1009.8 1005.9 +31.4
15 22.07 З 2 9000 м 9/6 540 м
[Cu med, cong Ac trans Ci sp]
+26.6 +23.6 84 +36 +36 очень
душно
1010.1 1006.2
18 22.07 Ю 2 7000 м слаб. дождь 9/6 500 м
[Cu med, cong Ac As Ci sp]
+24.6 +23.0 91 +33 +33 очень
душно
1009.4 1005.5 4
21 22.07 штиль 0 8000 м {дождь} 9/5 500 м
[Cu med, cong Ac As Ci sp]
+25.2 +23.4 90 +34 +34 очень
душно
1009.5 1005.6 0.2
00 23.07 З 1 10 км {дождь} 9/3 570 м
[Cu med, cong Ac As Ci sp]
+27.0 +24.3 85 +38 +41 очень
душно
1011.1 1007.2 +24.6 4
06 23.07 Ю 2 10 км 9/4 570 м
[Cu med, cong Ac As Ci sp]
+27.6 +23.5 78 +37 +42 очень
душно
1009.2 1005.3
09 23.07 Ю 4 8000 м в посл. час дождь 10/5 450 м
[Cb cap Ac As]
+26.4 +22.5 79 +35 +35 очень
душно
1009.8 1005.9 0.0
12 23.07 ЮЗ 6 7000 м слаб. дождь 9/5 450 м
[Cb cap Ac As Ci sp]
+24.8 +23.2 91 +33 +33 очень
душно
1011.9 1008.0 +30.4 1
15 23.07 Ю 1 9000 м {дождь} 9/5 540 м
[Cu med, cong Ac trans Ci sp]
+24.6 +22.7 89 +32 +32 очень
душно
1012.0 1008.1 0.0

 

Местоположение метеостанции Тернат (Индонезия): широта 0.77 долгота 127.36 высота над уровнем моря 23 м.

В архиве по умолчанию представлена погода в Тернате за последнюю неделю. Архивные данные за месяц целиком и за предыдущие месяцы, начиная с января 2011 года, Вы можете получить, выбрав интересующий диапазон дат из раскрывающегося списка и нажав кнопку "Ввод!".


*Определитесь, кто Вы:
робот инопланетянин человек

Внимание! Время в таблицах - всемирное. Для получения местного времени необходимо прибавить поправку, которая равна 9 ч.

Смотрите также архив погоды в соседних городах и на ближайших метеорологических станциях:

Погода в Голеа (Индонезия) (128 км)
Погода в Лабухе (Индонезия) (156 км)
Погода в Битунге (Индонезия) (253 км)
Погода в Менадо (Индонезия) (285 км)
Погода на Санане (Индонезия) (351 км)
Погода в Намлеа (Индонезия) (448 км)
Погода в Аэропорту Соронг-Джефман (Индонезия) (458 км)
Погода в Горонтало (Индонезия) (479 км)
Погода в Амахаи (Индонезия) (488 км)
Погода в Амбоне (Индонезия) (504 км)

Пояснения к столбцам:

Ветер - указаны скорость ветра в м/с - средняя за 10 мин, порывы в срок и между сроками (в фигурных скобках) и направление, откуда дует ветер: С - северный, СВ - северо-восточный, В - восточный, ЮВ - юго-восточный, Ю - южный, ЮЗ - юго-западный, З - западный, СЗ - северо-западный.
Видимость - горизонтальная дальность видимости в метрах или километрах. При видимости от 1 до 10 км при отсутствии осадков обычно наблюдается дымка, при ухудшении видимости до 1 км и менее - туман. В сухую погоду видимость может ухудшаться дымом, пылью или мглою.
Явления - указаны атмосферные явления, наблюдавшиеся в срок или в последний час перед сроком; фигурными скобками обозначены явления, наблюдавшиеся между сроками (за 1-3 часа до срока); квадратными скобками обозначены град или гололедные отложения с указанием их диаметра в мм.
Облачность - указаны через наклонную черту общая и нижняя облачность в баллах и высота нижней границы облаков в метрах; квадратными скобками обозначены формы облаков: Ci - перистые, Cs - перисто-слоистые, Cc - перисто-кучевые, Ac - высококучевые, As - высокослоистые, Sc - слоисто-кучевые, Ns - слоисто-дождевые, Cu - кучевые, Cb - кучево-дождевые. Подробнее классификацию облаков см. в Атласе облаков (PDF).
T - Температура воздуха - температура, измеренная на высоте 2 м над землей.
Td - Температура точки росы - температура, при понижении до которой содержащийся в воздухе водяной пар достигнет насыщения.
f - Относительная влажность воздуха - влажноcть воздуха, измеренная на высоте 2 м над землей.
Te - Эффективная температура - температура, которую ощущает одетый по сезону человек в тени. Характеристика душности погоды. При расчете учитывается влияние влажности воздуха и скорости ветра на теплоощущения человека.
Tes - Эффективная температура на солнце - температура, которую ощущает человек, с поправкой на солнечный нагрев. Характеристика знойности погоды. Зависит от высоты солнца над горизонтом, облачности и скорости ветра. Ночью, в пасмурную погоду, а также при ветре 12 м/с и более поправка равна нулю.
P - Атмосферное давление - приведенное к уровню моря атмосферное давление.
Po - Атмосферное давление - измеренное на уровне метеостанции атмосферное давление.
Tmin - Минимальная температура - минимум температуры воздуха на высоте 2 м над землей.
Tmax - Максимальная температура - максимум температуры воздуха на высоте 2 м над землей.
R - Количество осадков - Количество выпавших осадков за период времени, мм. При наведении курсора мыши на число - период времени, за который выпало указанное количество осадков.
R24 - Количество осадков - Количество выпавших осадков за 24 часа, мм.
S - Снежный покров - Высота снежного покрова, см. При наведении курсора мыши на число - состояние снежного покрова и степень покрытия местности в баллах.